Powrót do katalogu

YUNHAI 2-2A

AktywnyPogodaLEO
NORAD 59280·PAYLOAD·🇨🇳 China

Wystrzelony Mar 21, 2024 z Jiuquan Satellite Launch Center

Loading…

Następne Przeloty (najbliższe 24 godziny)

TLE

ŚwieżeSource: Space-Track

Epoka: Sep 14, 2026, 14:39 UTC

1 59280U 24052A   26257.61071737 -.00000097  00000-0  25634-4 0  9992
2 59280  50.0093  63.7468 0011845 100.0079 260.2173 14.27986113111009

Śledź YUNHAI 2-2A w czasie rzeczywistym z AllMySat

Download on the App Store